Wind_Speed
96 96 96 94 91 91 90 89 88 86 84 83 81 79 78 76 75 73 73 73 72 70 69 66 61 60 61 60 61 60 58 56 54 51 48 46 44 42 41 39 39 38 36 36 35 35 34 32 30 30 31 31 31 29 28 26 25 24 22 20 19 20 20 20 20 20 20 18 18 17 16 16 15 15 17 19 21 21 21 19 19 18 16 14 13 12 11 10
96 96 96 94 91 90 90 90 88 87 85 83 82 80 79 77 76 74 73 73 73 72 70 68 63 64 63 59 59 58 58 59 56 53 49 47 46 43 42 40 39 38 37 37 36 36 35 33 32 31 31 31 31 30 29 27 26 25 23 21 20 21 21 21 20 21 21 20 19 18 18 17 16 15 17 19 21 22 21 20 19 18 17 16 15 13 12 10
95 95 96 94 91 90 89 89 90 88 86 84 82 82 80 78 78 75 74 73 74 73 72 70 66 66 65 58 57 59 59 60 57 54 50 49 48 45 42 41 40 39 39 39 38 37 35 33 33 31 31 32 32 31 30 28 27 26 25 22 21 23 22 21 21 21 21 21 21 20 20 19 18 17 18 19 21 22 23 22 21 19 17 16 15 13 12 11
94 94 94 93 90 90 89 88 90 90 87 85 83 83 81 78 78 76 75 73 74 75 74 72 68 68 68 60 57 58 58 59 56 53 51 50 49 47 44 41 40 40 41 41 40 38 36 35 34 32 32 33 32 32 30 29 28 28 27 24 24 25 23 22 21 21 22 22 22 22 22 21 19 19 19 20 21 24 24 23 21 19 16 15 14 13 11 11
91 93 93 92 86 86 89 88 89 91 89 86 85 83 81 79 77 76 76 75 75 76 75 74 71 69 69 62 56 56 57 57 55 52 51 52 51 49 46 43 42 42 43 43 42 40 38 37 36 34 33 34 33 33 32 30 29 29 29 26 25 26 24 22 22 22 22 22 23 23 23 22 21 21 21 21 23 24 24 23 21 18 16 15 14 13 12 12
88 90 92 91 84 78 84 89 88 90 90 88 86 83 82 80 76 75 76 77 76 76 77 76 73 71 71 65 56 53 57 57 54 52 53 53 53 52 49 46 44 44 45 45 44 41 39 38 38 37 35 35 34 33 32 32 30 29 29 28 27 26 25 24 23 23 23 23 23 24 24 24 22 23 22 22 24 24 23 23 22 20 18 17 16 15 15 14
89 88 90 91 88 78 79 87 86 86 90 88 87 84 82 81 78 75 74 77 77 76 77 78 75 74 74 68 56 52 57 59 55 54 55 55 56 55 52 49 47 47 47 47 46 43 40 40 39 38 36 36 35 33 32 32 32 30 29 29 28 27 27 26 24 24 24 23 22 23 25 26 25 24 23 23 25 24 22 23 21 20 19 18 19 18 16 15
91 89 90 90 91 84 78 86 85 83 88 89 88 87 83 82 81 76 70 73 78 77 76 79 78 76 76 71 60 54 56 61 59 56 55 55 57 58 55 52 49 49 49 48 46 44 42 41 40 39 38 37 36 35 32 32 32 32 30 29 29 29 29 28 25 24 24 23 22 22 24 26 26 26 25 26 28 25 23 23 21 21 20 20 20 19 18 16
89 89 90 90 90 85 76 82 86 79 83 89 88 88 85 82 82 79 71 68 75 78 77 79 80 79 78 75 69 58 52 59 63 58 54 53 54 54 53 53 52 50 50 49 47 45 44 42 42 40 39 39 39 37 35 34 33 32 32 30 30 30 30 30 28 26 25 25 23 22 23 24 26 27 27 29 30 26 24 24 23 23 23 23 22 21 19 18
83 87 89 90 90 86 73 75 85 77 76 86 89 87 87 83 81 79 74 69 71 77 78 79 80 81 80 79 76 63 47 52 65 64 57 53 51 50 51 52 53 51 50 50 48 46 45 45 44 43 42 41 41 39 37 37 34 32 32 32 32 31 30 31 32 29 27 27 25 24 24 23 25 27 29 32 31 29 28 26 26 26 26 26 25 23 21 19
75 82 87 89 90 89 78 74 83 78 69 79 88 88 87 84 82 78 72 70 72 75 78 79 80 82 82 81 79 66 50 50 61 68 63 53 50 49 49 51 51 50 49 50 49 47 48 47 45 44 43 42 41 41 39 38 36 33 33 33 33 32 30 31 33 33 30 28 27 26 26 24 24 25 30 34 33 32 31 30 28 28 29 28 27 25 23 21
69 76 82 86 89 92 88 79 81 80 69 71 83 87 87 85 83 80 70 63 71 76 76 78 80 81 83 83 80 71 62 58 56 64 65 56 53 51 49 50 50 49 49 48 47 47 49 48 46 45 44 43 42 42 41 39 37 35 35 35 35 34 32 31 33 35 33 29 28 28 28 27 24 24 31 34 33 34 33 32 31 30 31 31 30 28 26 24
67 72 77 82 86 91 91 83 80 85 75 67 79 85 86 87 83 82 73 56 61 76 77 76 78 81 84 84 82 76 72 68 57 58 64 60 57 57 54 52 53 52 51 50 48 48 50 49 46 46 46 45 43 42 42 40 38 37 37 37 35 34 33 31 32 34 33 31 29 30 30 28 25 26 31 34 34 35 35 34 34 33 33 32 32 31 29 27
63 68 73 77 82 88 92 87 80 86 80 68 76 82 82 87 84 83 79 59 51 67 75 75 76 80 85 84 83 81 78 75 64 56 60 62 58 57 58 56 55 57 56 54 53 52 51 50 47 47 48 47 46 44 43 42 40 39 38 38 37 35 33 31 32 32 32 31 30 31 30 27 26 27 31 34 35 38 38 37 36 35 34 33 34 33 32 30
59 62 68 73 78 84 91 92 84 84 82 73 73 76 77 85 86 84 84 70 55 56 64 75 80 79 84 85 84 84 82 80 71 59 57 60 57 54 57 58 56 57 58 58 55 52 52 51 49 49 49 48 48 46 45 43 42 41 40 40 38 35 33 32 33 32 31 31 31 30 28 25 26 28 30 33 36 39 39 39 38 37 36 35 35 35 34 33
57 57 62 69 74 81 89 93 90 86 83 80 76 69 69 80 85 86 87 79 67 57 52 63 79 80 81 86 86 86 86 81 75 67 59 57 56 52 52 57 58 56 59 61 58 55 55 54 52 51 51 50 49 49 47 45 44 43 41 40 39 37 35 34 34 32 32 32 30 30 27 23 25 27 29 30 34 37 39 40 41 40 39 38 37 36 36 35
55 54 56 63 70 77 85 91 94 92 85 82 82 71 65 75 84 87 89 83 77 68 54 49 62 74 79 87 87 85 87 83 78 75 68 61 56 52 50 53 59 61 61 63 62 59 57 57 57 55 53 52 51 50 50 49 47 44 42 40 38 37 36 35 34 33 33 33 32 31 29 24 23 26 28 28 30 34 37 40 42 42 42 41 40 38 37 36
54 53 53 58 66 73 81 88 92 96 90 82 85 79 68 71 81 87 90 88 81 76 67 52 50 60 75 86 88 84 85 84 80 79 77 72 63 56 53 49 53 62 66 66 64 62 60 59 60 59 56 53 52 52 51 50 47 43 41 40 36 35 36 36 36 36 36 36 35 33 29 24 24 26 27 27 28 31 34 38 41 42 43 43 42 41 39 38
53 54 53 54 61 68 76 84 89 96 96 88 86 84 74 70 77 85 90 93 83 73 75 67 53 55 68 81 87 83 81 82 81 81 82 80 74 67 61 53 49 55 63 67 66 65 64 62 62 62 58 54 52 51 50 48 45 43 42 41 38 35 35 36 36 37 37 36 35 33 29 26 26 27 27 27 27 29 31 34 37 39 42 44 44 43 41 40
54 53 52 52 58 65 72 80 86 91 96 94 91 87 77 71 77 85 88 96 88 70 75 79 63 57 65 74 82 83 81 81 83 84 85 85 82 78 72 64 56 53 56 63 67 68 67 66 64 62 59 55 51 48 47 47 45 45 45 44 41 37 34 33 35 36 37 37 35 34 33 31 29 28 28 29 28 28 29 30 32 35 39 43 44 44 44 43
56 54 52 51 54 62 69 77 83 87 93 95 94 91 83 74 76 84 85 92 93 74 70 81 74 62 62 67 75 81 81 81 84 84 85 87 85 83 81 75 67 58 56 58 64 68 70 69 66 63 61 58 54 51 49 49 47 47 47 45 43 40 35 32 35 36 37 38 37 36 37 33 31 30 30 31 31 28 26 28 30 31 34 37 40 42 45 46
55 56 54 51 53 58 65 73 80 84 88 93 95 94 90 80 74 80 83 87 95 85 70 74 77 68 64 65 67 76 78 75 78 81 83 87 86 83 82 82 76 67 61 59 61 67 71 71 68 66 64 60 58 56 53 51 49 49 48 47 44 41 36 34 36 37 38 40 39 38 39 35 32 33 32 32 31 27 26 28 28 27 27 30 33 37 41 45
54 55 54 52 53 56 61 69 76 81 84 89 94 93 91 87 78 78 85 87 94 97 81 72 77 74 68 67 65 69 75 74 75 78 81 86 87 85 82 82 82 77 70 64 61 65 69 70 68 66 63 60 60 58 56 53 51 50 49 46 42 38 36 36 37 39 40 41 41 40 40 37 33 34 33 32 31 28 27 28 27 26 26 26 28 31 34 39
54 54 54 52 52 54 58 64 72 78 81 85 92 92 89 89 83 79 85 89 92 99 94 79 78 76 67 64 65 64 70 76 77 77 79 82 83 84 83 82 83 82 76 68 63 63 65 65 62 59 56 56 57 58 58 56 54 52 50 46 41 37 37 37 38 40 41 43 42 41 42 40 35 35 33 31 33 32 30 30 29 28 28 27 29 29 29 32
54 53 52 52 52 53 55 60 67 75 80 82 89 92 89 90 88 82 82 90 94 98 99 89 80 74 60 57 63 64 66 73 78 77 75 78 81 81 81 82 84 84 79 73 68 65 63 62 60 57 56 56 57 58 58 57 55 53 51 47 43 40 39 39 39 41 43 44 43 41 44 43 38 36 35 33 35 35 32 32 32 30 29 28 28 28 28 29
54 53 53 52 52 52 52 57 64 71 77 80 85 92 93 92 91 86 81 87 96 99 101 99 89 75 58 53 61 62 63 71 78 78 72 72 77 79 79 80 82 84 82 78 76 72 67 64 63 62 61 59 58 57 56 55 55 55 52 47 45 42 42 42 41 42 44 45 43 42 45 46 41 38 37 35 35 35 34 34 33 30 28 27 27 27 28 29
54 54 54 53 52 51 52 56 61 66 73 78 83 90 96 96 94 93 88 87 94 100 104 107 101 85 63 52 56 60 64 69 76 79 74 69 72 76 77 78 79 83 85 81 79 77 73 68 67 66 66 65 63 59 57 56 55 54 50 46 45 43 41 42 42 44 46 47 46 44 46 48 43 37 36 36 35 35 34 33 30 30 29 28 28 28 28 28
54 55 55 54 52 51 52 53 57 62 69 77 82 87 95 99 98 101 101 95 90 95 104 109 108 101 79 58 53 58 63 66 73 78 74 70 70 71 75 77 79 82 83 82 80 78 76 74 71 68 67 68 66 61 58 58 57 54 51 48 46 44 42 42 44 46 47 49 49 46 45 48 46 39 35 35 36 35 32 29 28 30 32 31 30 29 28 27
54 55 55 56 54 52 52 51 54 60 66 73 79 86 93 99 103 105 105 101 90 87 97 106 108 110 101 78 58 54 60 65 71 77 76 74 70 67 70 75 76 75 76 75 76 78 76 74 70 67 66 65 63 61 58 58 59 57 54 51 48 47 46 46 46 47 49 51 51 47 46 48 48 44 38 35 35 34 30 29 31 31 32 33 31 29 28 28
54 55 55 56 55 53 51 50 53 57 62 68 75 83 90 96 104 102 98 99 93 85 89 96 103 109 109 97 74 56 56 64 68 70 74 78 75 69 68 70 70 70 70 70 73 78 77 72 69 67 67 65 63 62 59 58 60 60 57 53 52 51 49 49 49 49 51 55 54 51 47 48 49 47 42 36 32 30 30 31 32 32 33 34 33 31 30 29
54 55 55 55 55 54 53 52 53 54 59 66 70 77 85 91 96 94 94 100 96 88 87 87 93 101 101 101 91 69 56 63 69 64 63 71 74 73 72 71 70 67 68 69 72 77 78 75 73 70 69 68 66 65 62 62 63 62 60 56 55 55 53 53 53 53 57 58 57 54 49 48 50 48 45 39 30 28 31 32 32 34 35 35 34 33 31 30
56 56 55 55 56 55 55 54 54 55 58 64 67 72 78 81 84 84 92 103 99 94 94 88 84 88 89 93 98 85 63 61 71 66 58 61 67 72 76 79 81 77 76 77 76 78 81 80 79 75 73 72 69 67 65 65 66 65 64 61 59 59 59 58 58 59 61 60 59 57 51 48 50 48 49 47 36 30 31 32 34 35 35 35 35 34 31 30
57 57 56 56 55 56 57 56 56 58 59 62 66 70 71 73 77 78 87 101 99 94 96 95 87 81 82 87 94 95 75 60 66 69 61 59 61 66 72 76 82 82 80 81 81 81 82 82 82 79 78 77 75 72 70 70 70 69 69 67 63 62 61 60 61 61 61 60 58 55 51 51 51 49 51 52 42 33 32 32 34 35 35 36 36 35 33 31
58 58 57 56 56 58 59 57 58 60 61 63 65 67 68 70 72 73 83 99 99 92 93 97 95 85 81 84 90 96 87 65 59 64 65 64 63 65 69 72 76 76 75 76 78 80 81 82 83 82 81 81 79 76 73 70 67 66 67 65 61 59 59 59 60 59 58 57 55 54 54 55 54 52 52 53 45 37 34 33 33 34 35 36 37 37 35 34
59 59 59 58 57 59 59 59 61 61 62 65 65 66 68 69 70 71 81 94 95 93 93 94 96 91 83 85 89 95 94 76 59 60 68 71 69 68 69 72 74 74 74 74 75 77 78 79 80 78 78 79 77 75 73 69 66 65 65 63 59 58 59 59 59 58 56 55 56 59 60 59 57 54 54 53 48 41 37 35 35 35 35 35 37 38 38 37
59 59 59 59 58 59 60 61 62 63 63 65 66 67 67 67 69 72 79 90 92 93 95 93 95 93 85 85 91 97 99 86 66 61 66 70 72 72 70 70 71 73 75 75 75 75 76 77 78 76 74 75 75 74 72 70 69 68 68 67 64 60 58 57 57 57 55 57 61 64 64 61 59 58 56 54 52 47 41 37 35 35 36 35 36 38 39 38
60 60 60 59 59 59 60 61 63 64 65 67 68 68 65 64 67 69 75 87 93 93 95 95 95 94 88 85 89 97 101 91 74 65 64 66 68 71 72 70 69 70 72 71 70 71 71 72 74 73 72 72 73 72 71 69 67 67 69 68 65 61 58 56 56 57 58 60 65 66 64 62 60 59 57 54 52 49 43 37 34 33 34 34 34 36 37 37
61 62 61 60 59 59 60 62 63 65 66 68 70 68 66 65 67 68 71 80 89 92 92 93 93 93 91 86 84 90 99 94 81 71 67 65 64 67 70 70 68 68 68 67 68 70 69 67 67 68 69 69 69 69 69 69 67 67 67 66 63 62 61 60 61 64 64 65 67 66 65 64 62 60 58 56 53 49 45 41 37 34 33 32 32 34 35 36
62 64 63 61 61 61 61 62 64 65 67 69 70 69 68 67 67 69 72 75 83 89 89 89 90 90 91 89 84 85 93 94 86 78 72 67 63 62 63 65 67 68 66 66 67 69 69 69 68 67 67 66 67 68 70 70 69 69 69 68 68 66 63 62 63 64 63 62 64 65 66 66 64 60 57 55 52 48 45 44 42 38 36 34 33 33 33 34
64 65 64 63 63 64 63 64 65 67 69 70 70 70 69 68 68 68 71 76 81 84 83 84 89 89 88 89 88 86 88 93 91 83 75 68 62 59 59 61 64 65 64 65 67 67 68 69 68 67 67 66 67 68 68 67 67 69 70 71 73 72 70 68 65 63 62 60 61 64 67 67 64 58 54 52 49 45 43 42 42 40 38 36 33 31 31 32
66 66 65 65 66 67 67 68 68 69 70 71 72 71 69 67 67 66 69 74 80 83 80 79 84 86 84 86 89 90 91 93 93 85 72 64 60 57 56 57 60 63 65 66 67 67 66 66 65 65 66 66 66 65 64 64 63 63 65 66 66 66 66 64 62 61 61 61 62 63 67 68 63 57 54 51 47 44 41 41 41 41 40 38 35 34 32 32
68 66 65 67 69 70 70 71 71 70 71 72 71 71 69 67 66 66 67 69 76 83 81 80 82 80 80 81 82 88 96 97 95 87 72 62 59 54 50 51 54 58 62 62 63 64 65 64 64 64 64 64 64 64 63 62 61 61 62 61 59 59 59 58 58 59 57 56 56 54 60 68 63 55 53 50 45 42 41 40 40 41 41 40 38 37 36 34
68 65 66 69 71 71 72 73 73 71 71 71 69 69 69 68 67 67 68 67 72 78 80 83 85 80 79 80 74 77 92 99 96 88 77 64 57 53 51 51 52 54 58 60 64 67 67 65 64 64 63 63 63 62 60 59 60 61 62 61 61 61 60 60 60 59 55 52 50 47 56 67 61 51 50 47 41 39 38 37 37 38 41 41 40 39 38 37
68 66 67 70 73 74 74 74 74 73 71 70 70 69 69 70 70 70 70 70 70 72 75 81 86 85 83 83 77 69 78 91 92 86 82 73 61 56 54 52 53 55 57 62 66 67 67 67 65 64 64 66 67 66 64 64 64 64 62 62 63 62 61 62 61 59 57 55 52 50 58 68 61 49 47 42 37 36 37 37 38 39 40 40 39 38 37 36
70 70 71 73 74 76 77 75 73 73 72 71 71 71 70 71 72 72 73 73 71 71 72 75 81 85 85 86 87 78 72 78 81 80 83 81 69 59 53 50 51 53 53 59 64 64 67 69 66 64 66 67 67 68 70 70 69 68 66 64 64 63 63 61 59 58 58 56 54 53 57 61 54 46 42 38 37 40 40 39 39 40 39 38 37 37 36 37
73 76 76 75 75 77 78 76 73 73 73 72 71 71 70 71 73 73 74 75 76 74 72 72 75 79 81 83 89 90 81 74 73 74 79 82 75 64 54 47 46 48 49 54 61 64 68 71 66 65 65 60 57 59 61 64 66 65 63 61 63 64 63 59 58 58 55 53 55 54 52 50 46 44 44 41 40 41 39 38 38 39 39 39 38 38 38 38
76 79 79 78 77 79 79 77 75 74 72 71 71 71 71 72 72 73 76 77 78 77 75 75 75 76 77 79 84 92 90 80 73 71 73 77 75 70 63 52 46 48 50 51 56 62 67 69 66 65 63 58 57 57 55 58 60 57 57 58 60 62 62 61 61 58 55 55 57 53 48 47 46 45 45 41 38 38 38 39 39 38 39 41 41 40 40 39
78 80 80 79 79 81 80 78 76 73 70 69 71 71 71 73 74 76 78 77 78 80 79 79 79 77 75 76 79 86 91 88 81 73 68 69 72 74 73 63 52 51 51 50 53 60 66 67 64 64 63 61 61 59 55 57 58 56 56 57 56 58 60 60 58 55 55 57 53 45 42 43 42 39 39 38 37 38 40 42 42 41 42 43 44 43 42 42
77 81 82 82 81 81 79 77 75 74 72 70 71 72 73 74 77 78 77 78 80 83 83 82 81 78 76 75 76 79 87 95 95 84 70 64 67 73 75 69 58 50 48 51 53 58 63 65 65 66 65 63 62 59 57 58 59 58 58 57 56 57 56 56 54 52 53 55 47 39 40 44 43 40 39 41 42 42 43 45 45 45 45 45 45 45 44 43
74 79 82 85 84 81 79 77 76 76 74 71 71 73 73 75 77 78 78 81 83 84 85 84 81 78 77 76 76 79 82 90 98 97 83 69 64 67 70 69 61 52 48 50 53 56 58 59 61 64 65 65 64 60 58 59 60 60 59 57 57 57 56 55 53 50 52 53 48 43 47 49 46 43 42 44 46 47 46 46 46 47 47 46 45 45 45 44
70 74 78 84 86 83 81 79 77 77 75 73 72 72 73 75 75 76 78 82 85 85 85 85 81 79 79 77 77 79 79 81 90 98 95 84 72 67 65 64 63 61 56 53 52 54 56 57 59 63 66 67 63 60 61 60 61 64 64 61 59 57 54 52 49 48 51 52 47 47 50 47 41 41 44 45 46 47 46 46 46 46 45 43 41 42 43 44
67 68 72 79 82 80 79 77 76 76 75 72 72 72 74 75 74 75 78 80 83 85 84 83 81 81 84 82 78 77 77 76 81 88 93 89 81 74 67 62 61 63 63 60 57 55 54 56 60 63 65 63 61 62 62 61 67 71 64 57 56 54 51 50 49 48 49 49 46 46 45 38 34 38 44 46 47 47 46 45 45 44 43 42 41 42 44 45
Wind_Direction
217 217 218 219 219 218 217 216 217 216 215 214 215 215 214 214 213 211 210 210 209 209 207 204 206 209 212 217 218 217 219 220 219 219 221 222 221 218 215 215 216 216 218 218 217 215 215 216 216 214 212 215 215 213 211 206 206 210 213 212 213 218 219 217 214 212 214 218 220 219 217 218 218 210 200 199 199 197 195 197 201 200 197 196 200 209 214 220
215 216 217 218 218 218 217 216 216 216 215 215 215 215 214 214 213 212 210 210 209 209 208 205 205 208 213 219 217 213 217 219 219 219 221 222 221 220 217 216 217 217 217 219 219 217 216 215 216 216 213 215 217 216 214 208 206 208 210 210 213 218 218 217 215 212 212 215 218 220 218 218 219 215 207 202 201 200 198 199 204 205 203 203 207 211 214 220
215 215 216 217 217 217 217 216 215 216 216 215 215 216 215 214 214 212 211 211 210 209 209 207 206 207 212 220 218 213 214 217 219 219 220 222 222 221 219 218 218 219 218 218 219 219 217 215 216 216 215 215 217 218 217 212 210 208 206 208 214 219 218 216 215 213 212 213 216 220 219 217 218 217 213 208 204 203 201 201 204 206 209 213 217 219 220 223
216 214 215 216 216 217 217 216 215 215 215 215 215 216 215 215 215 214 212 211 211 210 210 210 208 207 210 217 221 216 213 214 218 220 221 223 223 222 220 220 220 221 221 219 219 218 217 217 217 216 216 216 217 219 217 215 214 210 206 206 214 220 219 215 214 214 214 213 214 219 220 217 216 217 218 213 209 208 205 204 204 205 210 218 223 226 227 226
217 214 214 214 214 217 217 216 216 214 214 214 214 215 215 214 215 215 214 212 211 210 210 211 210 209 209 215 222 218 213 213 215 219 222 223 223 223 221 221 221 221 222 221 219 218 217 217 218 217 216 218 219 219 218 216 217 215 210 209 215 222 222 216 214 214 215 215 214 218 222 220 215 218 221 218 216 215 210 207 205 203 207 215 220 224 225 224
219 215 214 212 210 214 217 215 216 215 214 214 213 214 215 214 214 216 215 213 212 211 211 211 211 210 210 215 222 218 213 213 213 217 222 224 225 224 222 222 222 222 223 222 221 219 218 217 218 218 217 219 220 221 219 218 218 218 215 213 216 223 224 220 215 214 214 215 214 216 221 223 218 218 222 223 223 221 216 213 208 204 206 211 217 219 221 224
220 217 214 212 208 209 215 215 214 215 214 214 213 213 214 214 213 215 216 215 214 212 211 211 211 210 211 214 220 220 217 214 212 215 221 223 224 223 222 221 222 224 223 222 221 220 219 219 219 218 219 220 221 222 221 220 219 219 218 216 217 220 224 224 218 215 213 213 213 214 219 223 221 220 221 226 228 225 221 220 215 210 209 212 220 223 223 226
221 219 215 213 210 208 214 215 213 215 215 214 214 213 212 214 213 213 215 216 215 214 212 212 212 211 211 214 217 219 221 219 214 214 219 220 221 222 222 221 221 223 224 223 222 221 219 220 220 219 219 220 222 223 223 222 220 219 220 219 219 219 223 226 223 219 216 214 214 214 217 220 223 222 221 227 231 228 224 224 223 219 216 218 224 228 229 229
221 221 218 215 212 207 211 216 212 212 216 215 213 213 212 212 213 213 213 215 216 215 214 212 213 212 211 212 214 216 218 222 218 215 220 219 220 223 223 223 223 223 224 224 223 222 221 220 221 220 219 220 221 223 223 224 222 221 223 222 222 222 222 225 226 224 220 219 219 219 221 220 222 222 222 228 231 229 227 225 225 226 224 224 225 229 232 234
220 221 219 217 214 206 205 213 211 208 214 216 214 212 211 211 212 213 213 216 217 216 216 214 214 214 212 212 214 212 210 220 220 217 220 222 222 224 223 224 224 224 225 225 223 222 221 221 220 220 219 219 220 221 222 224 224 222 224 224 223 224 226 226 225 226 223 222 222 223 227 224 222 220 221 229 231 228 228 226 225 228 230 231 230 230 231 234
218 219 219 218 216 208 202 208 209 204 208 214 214 212 211 210 211 210 211 218 220 218 217 215 215 215 214 213 213 209 208 219 222 219 220 223 223 222 222 223 223 224 226 227 225 222 221 222 221 221 221 220 219 221 222 223 224 222 223 225 225 225 229 228 225 226 224 223 225 226 229 228 225 219 220 229 231 228 229 227 226 229 233 235 236 235 234 235
218 218 219 218 217 212 207 208 209 203 203 210 214 213 210 209 210 208 206 215 222 220 219 218 217 216 216 215 212 209 213 219 221 221 221 223 221 217 218 222 221 222 226 230 229 225 224 223 223 223 223 222 221 221 223 224 223 221 221 224 226 227 229 229 227 227 226 226 227 228 228 228 227 219 221 231 232 230 230 229 228 229 233 237 239 240 238 238
218 216 217 218 217 215 211 207 207 205 203 206 213 214 211 209 209 207 203 208 220 221 219 219 219 218 217 216 213 213 218 219 218 219 220 221 220 215 215 219 219 219 221 225 226 225 225 225 224 224 224 224 223 222 223 225 224 222 221 223 225 227 227 229 230 228 228 228 229 231 229 228 226 220 224 232 233 232 232 231 231 231 233 237 240 242 242 241
218 216 216 217 216 216 213 207 205 207 203 201 208 213 211 209 208 206 202 203 214 220 221 221 221 220 219 216 215 219 222 220 216 214 216 219 218 215 215 218 220 220 219 221 223 223 225 226 226 224 224 225 225 224 224 224 225 222 221 223 224 224 225 228 231 230 231 232 233 236 234 230 227 222 224 230 232 232 232 233 234 234 235 238 241 244 245 244
216 216 216 216 215 214 214 209 205 205 203 200 203 210 212 209 207 205 203 203 208 213 218 222 223 222 219 217 217 220 222 221 216 211 212 214 214 213 214 217 219 222 222 222 224 224 224 226 227 226 225 224 225 225 225 225 225 223 221 222 224 223 223 228 231 232 233 235 235 238 237 230 229 228 226 228 231 231 231 233 235 236 236 238 241 244 245 246
215 215 215 215 214 213 214 212 209 204 203 202 200 203 211 210 207 204 203 203 205 203 204 217 224 223 221 218 217 221 222 222 217 211 209 209 209 209 211 215 217 221 224 224 224 225 226 226 227 227 225 223 223 224 226 226 226 225 223 222 223 222 222 226 231 232 235 236 234 236 236 228 227 233 232 230 232 233 231 231 234 236 237 238 240 242 244 246
215 215 215 214 214 213 212 213 212 207 205 205 202 201 207 211 209 204 202 202 204 205 200 206 219 224 225 220 217 220 222 223 221 214 210 208 207 207 209 213 216 220 224 225 225 226 227 226 227 228 226 223 222 223 225 227 227 227 226 225 224 223 223 226 231 233 234 237 235 234 233 226 224 232 236 233 233 236 234 232 234 235 237 238 239 241 243 245
217 216 216 214 213 212 211 212 213 211 209 207 204 202 202 207 210 206 203 202 203 207 207 202 203 217 227 222 218 219 221 224 224 219 215 213 210 209 209 210 215 220 223 226 227 227 228 228 228 229 228 226 223 223 225 228 230 230 230 230 228 225 225 225 229 232 234 236 238 237 235 230 226 231 238 238 235 237 237 234 236 237 238 239 239 240 241 243
218 216 217 215 213 213 211 211 212 212 213 210 204 202 200 202 209 208 204 203 202 204 209 207 199 207 222 222 219 220 222 226 226 224 222 220 216 215 213 209 211 217 222 226 227 228 229 229 229 230 231 230 227 227 228 230 234 234 233 232 230 227 226 226 228 232 235 238 240 242 241 236 231 232 237 241 237 238 239 238 239 241 241 241 240 240 240 242
217 216 216 216 213 212 212 210 210 211 213 213 206 202 199 198 205 209 206 204 202 200 206 210 208 210 218 221 221 221 223 225 227 226 225 224 223 222 220 215 212 212 218 224 227 228 230 230 230 230 232 234 233 234 235 235 236 236 234 233 231 229 227 228 231 234 236 239 240 241 242 237 234 234 236 240 239 239 242 244 244 244 243 243 243 243 242 241
216 217 217 216 214 212 212 210 210 210 211 213 210 204 200 197 201 208 209 206 203 200 203 210 213 214 213 218 222 223 222 224 226 226 226 227 227 227 226 222 217 213 214 221 225 227 229 229 229 231 233 235 236 236 236 236 237 238 237 235 233 231 229 230 233 235 236 239 239 240 241 238 236 237 236 239 241 242 246 250 249 247 246 246 245 245 244 242
215 216 217 216 214 212 212 211 210 210 210 212 213 210 205 202 202 206 209 208 204 202 201 205 210 212 210 211 217 222 222 224 227 227 226 227 228 230 229 227 223 217 215 218 222 226 228 228 228 231 233 235 236 236 236 236 238 238 237 236 234 233 233 234 236 237 238 240 239 240 242 241 238 239 238 239 242 244 247 248 248 248 247 248 248 246 245 244
215 216 216 216 214 212 212 211 210 210 210 210 212 213 209 206 204 204 206 207 205 204 202 201 206 210 211 208 210 217 219 220 224 227 228 228 229 230 231 230 228 224 219 217 219 225 228 228 229 232 235 236 237 238 238 239 239 240 240 239 238 238 240 240 241 241 240 241 242 242 244 244 241 242 242 242 245 244 243 242 242 245 248 249 251 250 248 246
214 215 215 215 215 213 212 212 211 209 209 209 210 212 209 206 205 203 204 206 206 206 204 202 204 205 207 206 206 211 215 217 221 224 227 228 229 230 232 232 232 229 225 220 221 224 227 228 231 234 236 238 238 238 239 239 240 241 242 242 243 245 247 246 245 244 242 242 243 245 246 245 243 244 244 243 245 243 240 240 241 243 247 247 249 253 253 251
213 214 215 215 214 214 212 211 211 210 209 208 208 209 207 206 206 202 203 206 207 207 205 203 202 201 200 204 205 207 210 214 218 222 226 227 227 230 231 232 233 232 229 226 226 226 227 228 229 231 233 235 236 236 237 239 240 242 242 244 249 252 251 249 247 247 246 244 244 247 248 246 243 244 245 241 243 244 241 242 245 246 247 249 253 256 259 258
213 214 214 214 214 213 212 211 211 210 209 207 206 207 206 206 207 203 202 207 207 207 207 205 203 199 197 202 206 208 210 212 215 220 224 227 227 229 231 232 233 232 231 231 231 229 227 229 229 230 232 234 236 236 237 239 241 241 242 248 255 255 252 249 248 249 248 247 246 246 249 248 243 242 245 244 244 246 246 246 249 253 256 258 260 261 262 262
212 213 213 213 214 212 212 211 211 211 209 207 206 206 205 206 210 207 206 210 209 205 206 207 205 202 199 200 206 210 212 214 215 218 220 224 226 227 230 232 231 231 231 233 233 230 227 229 230 229 231 233 235 236 238 242 244 244 246 254 259 257 253 249 248 248 248 248 248 247 249 250 245 240 243 247 248 248 250 253 254 259 261 259 258 258 260 262
211 212 213 212 212 212 211 210 211 211 210 208 207 207 206 205 210 213 215 218 212 205 206 207 207 206 204 202 206 212 215 216 218 219 219 221 224 226 228 230 230 230 231 233 234 231 230 232 232 232 232 234 236 239 243 246 248 247 250 256 258 257 255 251 248 247 248 249 248 248 250 251 247 242 242 246 251 253 255 260 258 256 256 255 254 255 257 260
211 212 212 212 211 211 211 209 210 211 211 210 208 208 207 205 209 217 223 222 213 205 207 207 207 209 210 207 205 211 216 216 219 221 221 221 222 223 226 227 228 229 230 232 233 233 233 234 235 236 236 236 237 242 245 247 247 247 249 252 253 254 253 251 250 249 248 248 248 249 251 252 248 246 246 245 250 257 259 259 257 255 256 258 259 258 257 259
211 212 212 211 210 210 210 209 209 211 211 211 211 210 209 208 211 219 226 223 212 207 208 207 208 211 213 213 209 207 213 215 216 219 222 223 221 222 224 226 227 229 230 231 231 231 232 233 234 235 236 236 237 240 241 242 243 244 245 247 249 250 250 250 250 250 250 249 248 248 249 251 250 246 247 248 249 256 259 259 258 257 258 258 259 259 257 256
210 211 211 210 210 209 209 209 209 210 211 211 213 213 213 213 216 221 226 220 212 210 209 206 209 211 213 215 213 209 210 213 213 213 218 221 220 219 222 224 225 228 229 230 231 230 231 231 232 233 234 235 236 237 239 240 241 241 242 243 245 246 248 248 248 248 249 248 249 249 248 250 249 246 249 252 252 253 255 257 258 257 257 257 257 257 257 256
209 210 210 209 209 208 208 209 208 209 210 211 213 215 216 218 221 223 223 218 214 214 212 209 210 210 210 213 213 211 211 211 212 211 214 219 219 218 221 225 227 227 227 228 229 229 231 232 233 233 233 233 234 235 237 238 239 240 241 241 241 242 243 244 245 246 248 248 250 252 252 251 250 251 255 257 256 254 252 254 257 258 258 259 258 257 257 257
210 209 208 207 207 208 208 207 207 209 210 210 212 214 217 220 223 224 221 218 217 217 214 212 211 210 209 210 210 210 211 211 213 215 216 219 221 219 221 225 228 229 229 229 229 228 229 229 230 231 232 233 234 235 236 237 239 240 240 240 239 240 242 244 246 248 249 251 253 256 259 256 252 252 255 258 262 262 257 255 255 256 257 258 259 260 259 258
210 208 208 206 206 208 207 205 206 208 209 211 213 215 216 220 223 223 220 218 218 218 216 212 210 210 209 209 209 209 211 212 213 218 221 221 221 220 219 221 223 227 230 230 231 231 231 231 230 231 232 233 234 235 236 237 239 240 242 243 243 245 247 249 251 252 254 256 258 259 259 254 250 250 254 260 267 267 263 260 257 256 256 257 260 261 261 261
210 208 207 205 205 207 207 205 206 208 209 211 214 216 217 218 221 222 219 219 219 218 217 213 210 211 210 208 208 209 212 213 211 217 224 225 225 223 221 220 221 224 227 228 230 232 233 234 234 234 235 235 236 237 237 236 237 238 241 242 243 245 247 248 250 251 253 254 254 255 254 250 250 252 255 261 267 269 269 267 264 260 258 257 259 260 260 260
212 209 207 205 205 207 207 207 208 208 210 212 215 218 218 217 218 220 219 219 220 219 218 215 211 212 212 209 209 209 211 214 212 214 222 226 228 228 225 224 224 225 226 228 229 231 232 234 234 234 235 236 237 237 238 238 239 240 241 242 243 243 244 247 249 249 251 251 252 252 252 252 254 256 258 263 268 271 273 271 267 263 258 255 254 256 259 259
215 212 208 205 207 207 207 209 210 211 212 214 217 218 218 216 215 218 218 217 219 219 219 218 214 213 213 211 210 210 210 213 213 213 218 222 226 227 225 224 224 224 225 228 230 231 232 234 235 234 234 235 235 235 235 235 236 239 241 243 245 244 243 244 247 248 250 251 252 252 252 254 256 257 259 264 269 271 274 272 266 261 257 254 250 250 254 258
216 214 209 207 209 209 209 211 213 214 216 218 220 219 219 217 214 214 216 216 217 218 219 219 215 215 215 213 211 211 211 212 213 214 217 219 222 223 223 224 224 225 226 228 230 232 233 235 235 236 236 235 235 235 234 233 233 236 239 242 243 243 243 245 246 248 250 253 254 254 254 255 256 256 259 264 267 269 272 272 269 264 259 255 250 249 251 253
217 216 211 208 211 211 211 213 215 216 219 221 222 219 218 218 216 214 214 214 215 218 221 220 216 216 217 214 211 211 212 212 212 215 218 220 221 221 222 223 223 224 225 226 229 232 234 234 235 235 236 235 234 234 234 235 236 237 238 239 240 241 243 244 245 247 250 252 254 254 254 253 252 255 260 264 267 270 271 271 271 269 263 257 252 250 250 250
217 215 210 208 211 212 212 214 216 218 220 222 221 219 218 217 217 216 214 213 214 217 221 221 218 217 218 216 211 210 212 213 213 216 219 221 223 222 221 221 219 221 224 224 225 228 230 232 233 234 234 233 233 235 237 239 239 240 241 242 242 244 244 244 244 246 249 251 253 255 255 252 252 258 263 266 269 271 271 269 268 266 263 260 258 254 251 251
218 215 209 208 211 212 212 214 217 218 219 221 221 219 218 217 217 217 215 214 214 216 220 221 219 218 219 219 216 212 212 215 216 216 216 219 224 224 221 219 217 218 221 223 223 224 226 228 230 232 232 233 235 237 238 238 239 241 243 245 247 248 249 250 250 252 253 255 255 257 257 253 254 261 264 265 267 267 265 265 265 266 265 265 265 262 258 254
219 214 209 209 211 213 214 215 216 218 219 220 221 220 219 218 217 217 217 215 214 215 218 219 218 217 216 219 220 216 213 216 219 217 213 214 219 222 221 221 220 219 220 222 223 224 224 225 227 229 231 232 233 233 234 235 236 236 237 239 241 244 246 248 250 250 252 253 254 257 257 253 253 259 262 263 265 264 263 263 263 265 266 266 266 265 263 260
219 213 210 211 211 213 217 217 216 219 220 220 220 220 220 220 218 217 217 217 214 215 218 219 218 217 215 214 217 217 215 218 222 220 214 211 212 216 220 222 223 223 221 221 222 223 223 224 226 229 232 233 233 232 233 233 233 233 235 238 239 241 243 243 244 244 245 247 249 251 253 252 252 256 260 262 264 263 262 262 260 261 263 264 264 264 264 263
219 214 211 213 214 214 217 219 218 219 220 219 219 220 221 220 219 217 217 218 215 214 216 219 219 219 218 214 213 214 214 218 224 222 216 212 210 212 217 219 221 224 223 221 223 225 226 228 230 231 231 232 231 230 230 230 231 233 236 238 239 241 240 239 240 240 239 241 243 244 250 252 253 257 260 262 265 265 264 263 260 258 258 260 263 264 264 263
219 216 213 214 217 217 217 218 220 220 220 220 220 221 221 221 220 218 217 218 217 215 215 218 220 221 221 218 214 213 213 216 221 223 218 216 213 212 215 218 220 224 225 224 226 228 230 232 234 235 234 234 233 233 233 233 234 235 235 236 237 238 238 239 240 238 239 242 243 245 251 255 257 260 262 262 264 265 264 262 259 257 257 258 258 259 260 260
219 218 215 215 220 220 218 217 220 222 221 221 222 222 222 223 222 220 220 218 217 216 216 216 219 222 224 222 217 214 214 213 217 220 220 219 216 213 215 219 221 222 224 225 227 228 231 233 234 237 240 242 245 245 243 242 240 239 239 241 242 242 241 240 239 241 245 247 246 250 256 258 259 261 261 260 259 259 259 256 254 255 256 255 254 254 256 257
219 218 217 217 220 222 220 218 219 222 223 223 224 224 224 226 225 222 222 220 217 217 218 216 217 220 223 223 220 216 214 213 214 216 218 220 218 214 216 222 223 221 222 225 226 227 231 232 232 234 238 242 244 245 245 244 243 243 244 245 245 245 243 241 242 246 249 246 247 253 258 258 257 257 258 256 253 251 252 251 249 250 252 253 255 256 257 257
219 217 218 220 221 222 221 219 220 222 224 226 228 228 228 228 228 226 223 222 219 217 218 218 217 219 222 222 222 219 215 214 214 212 214 218 217 213 214 220 223 221 221 224 227 228 231 232 232 235 237 237 238 240 240 241 242 242 243 243 244 245 244 244 247 250 249 248 251 256 255 252 249 246 247 247 244 241 241 244 246 248 249 251 253 255 256 257
219 218 219 221 221 222 221 221 223 225 226 228 230 231 231 231 230 229 225 223 221 218 218 219 216 218 222 222 222 221 218 216 215 212 211 214 215 214 215 218 221 221 221 223 227 230 232 232 232 234 235 234 236 237 236 237 238 238 239 240 241 243 244 246 247 247 248 248 249 245 239 237 235 232 232 236 238 238 237 241 245 247 247 247 249 251 253 254
218 218 219 221 221 221 221 222 225 228 228 228 230 231 232 233 232 230 227 224 222 218 217 218 215 215 221 224 222 222 221 219 218 217 215 216 215 215 217 218 221 223 222 223 227 231 232 233 233 234 234 234 234 235 235 236 237 238 238 237 237 239 240 242 243 242 242 242 239 232 228 229 232 232 232 235 239 242 243 244 245 245 245 245 246 249 251 251
218 219 220 223 222 221 223 224 225 228 228 228 229 228 228 231 230 229 227 225 224 220 217 217 216 214 218 222 223 223 222 221 221 220 221 222 222 221 222 225 227 229 229 227 228 231 232 233 233 234 235 235 233 233 234 235 236 237 236 236 237 238 239 241 243 242 240 239 237 232 231 236 241 239 237 238 239 239 241 243 243 245 248 250 250 251 252 252
219 221 222 223 222 221 223 224 224 227 227 225 226 226 226 229 229 227 227 225 223 221 218 217 217 215 216 218 220 220 220 222 222 222 224 226 226 227 229 231 231 231 233 234 234 233 234 235 236 237 239 237 233 232 233 235 236 235 234 234 237 240 241 243 243 241 240 239 237 237 240 244 241 233 231 233 234 235 238 241 244 248 252 256 256 254 253 252
Height
5654 5661 5668 5675 5682 5690 5697 5703 5709 5716 5722 5728 5733 5738 5744 5749 5755 5760 5764 5768 5773 5777 5780 5784 5789 5792 5796 5799 5802 5805 5809 5813 5816 5819 5823 5826 5829 5830 5831 5833 5836 5838 5840 5842 5842 5844 5845 5847 5850 5852 5854 5855 5856 5858 5860 5863 5865 5867 5868 5870 5871 5872 5873 5874 5875 5877 5878 5880 5881 5882 5883 5883 5884 5885 5886 5887 5888 5889 5890 5891 5892 5893 5894 5894 5895 5895 5896 5897
5645 5653 5660 5667 5675 5682 5689 5696 5702 5709 5716 5722 5727 5732 5738 5743 5749 5754 5759 5763 5768 5772 5776 5779 5783 5788 5791 5794 5798 5801 5805 5809 5812 5816 5820 5823 5825 5827 5829 5831 5834 5836 5838 5840 5841 5841 5843 5845 5847 5849 5852 5853 5855 5856 5858 5860 5862 5865 5867 5868 5869 5869 5871 5872 5874 5875 5877 5878 5879 5880 5881 5882 5883 5884 5885 5886 5887 5888 5889 5890 5891 5892 5893 5894 5894 5895 5896 5896
5637 5645 5652 5660 5668 5674 5682 5689 5695 5701 5709 5716 5721 5726 5732 5738 5743 5749 5754 5758 5763 5768 5772 5775 5778 5783 5787 5791 5794 5797 5801 5804 5808 5812 5816 5819 5822 5825 5827 5829 5832 5834 5836 5837 5838 5839 5841 5843 5845 5847 5849 5851 5853 5854 5856 5858 5860 5863 5865 5866 5867 5867 5868 5870 5872 5874 5875 5876 5877 5878 5879 5881 5882 5883 5884 5885 5885 5886 5887 5888 5890 5892 5893 5894 5894 5894 5895 5896
5631 5637 5644 5653 5660 5667 5675 5682 5688 5694 5701 5708 5715 5719 5726 5733 5739 5744 5749 5753 5758 5762 5767 5771 5774 5778 5782 5787 5790 5794 5797 5799 5804 5809 5812 5815 5818 5821 5824 5827 5829 5831 5833 5834 5835 5837 5839 5841 5842 5844 5846 5848 5850 5851 5853 5856 5858 5860 5862 5864 5864 5864 5866 5868 5869 5871 5873 5874 5875 5876 5877 5879 5881 5882 5882 5884 5884 5884 5885 5887 5889 5891 5893 5893 5894 5894 5894 5895
5625 5631 5637 5646 5654 5660 5667 5674 5680 5688 5694 5701 5708 5714 5721 5728 5734 5739 5743 5747 5752 5757 5761 5765 5770 5774 5778 5782 5785 5789 5791 5793 5800 5805 5807 5810 5813 5817 5821 5824 5826 5828 5830 5831 5833 5835 5837 5838 5840 5842 5843 5845 5847 5849 5851 5853 5855 5857 5860 5861 5861 5862 5864 5866 5867 5869 5871 5872 5874 5874 5876 5877 5879 5880 5881 5882 5883 5883 5885 5886 5888 5890 5892 5892 5893 5893 5893 5894
5619 5625 5631 5639 5648 5654 5660 5667 5674 5681 5688 5694 5701 5708 5714 5722 5728 5732 5737 5742 5747 5751 5755 5759 5765 5769 5773 5776 5780 5784 5785 5789 5797 5801 5802 5806 5809 5813 5817 5820 5823 5825 5827 5828 5830 5832 5834 5836 5837 5839 5841 5843 5844 5846 5849 5851 5853 5855 5857 5859 5859 5860 5862 5863 5865 5866 5868 5870 5871 5873 5874 5876 5877 5878 5879 5881 5881 5883 5885 5885 5887 5889 5890 5891 5891 5891 5891 5892
5612 5619 5625 5631 5639 5646 5652 5659 5668 5676 5682 5688 5694 5701 5709 5716 5721 5726 5732 5737 5742 5746 5750 5755 5759 5764 5767 5770 5776 5778 5780 5786 5793 5795 5799 5802 5804 5808 5811 5815 5819 5821 5823 5825 5827 5830 5832 5834 5835 5837 5838 5840 5842 5844 5846 5849 5851 5853 5855 5856 5857 5858 5859 5861 5863 5864 5866 5868 5869 5871 5872 5874 5876 5877 5878 5879 5879 5882 5884 5885 5886 5887 5888 5889 5889 5890 5890 5891
5605 5612 5619 5625 5632 5640 5645 5652 5663 5670 5675 5682 5688 5695 5702 5709 5715 5721 5727 5731 5736 5741 5745 5749 5754 5758 5761 5765 5772 5773 5778 5784 5788 5791 5795 5797 5800 5802 5806 5811 5814 5817 5819 5822 5825 5827 5830 5831 5833 5834 5836 5837 5839 5841 5844 5846 5848 5850 5852 5854 5855 5856 5857 5859 5861 5863 5864 5866 5868 5869 5870 5872 5874 5875 5877 5877 5877 5881 5883 5884 5886 5886 5887 5888 5888 5889 5890 5890
5598 5606 5613 5619 5626 5635 5641 5646 5656 5664 5669 5675 5681 5689 5696 5702 5709 5716 5722 5726 5730 5734 5739 5745 5748 5752 5755 5760 5764 5769 5778 5783 5784 5788 5791 5793 5796 5799 5803 5807 5810 5813 5816 5819 5822 5824 5826 5828 5830 5832 5833 5835 5837 5839 5841 5843 5846 5848 5849 5852 5853 5854 5855 5857 5859 5860 5862 5864 5866 5867 5868 5870 5871 5874 5875 5874 5875 5879 5881 5883 5884 5884 5885 5885 5887 5888 5889 5890
5591 5599 5607 5613 5620 5629 5636 5640 5649 5659 5663 5667 5675 5683 5690 5697 5704 5711 5718 5721 5724 5729 5733 5739 5743 5746 5750 5754 5757 5766 5778 5778 5777 5782 5786 5789 5793 5796 5800 5803 5806 5809 5811 5814 5818 5821 5823 5825 5827 5828 5830 5832 5834 5836 5838 5840 5843 5846 5847 5849 5851 5852 5853 5855 5856 5858 5860 5862 5864 5866 5866 5868 5869 5871 5873 5872 5873 5876 5878 5880 5882 5882 5883 5883 5884 5886 5888 5889
5584 5591 5598 5606 5615 5623 5630 5634 5643 5653 5658 5662 5668 5676 5684 5691 5698 5706 5715 5718 5720 5724 5728 5734 5738 5741 5747 5750 5753 5766 5775 5772 5771 5777 5781 5785 5789 5793 5797 5799 5802 5805 5807 5810 5813 5817 5819 5821 5824 5826 5827 5829 5831 5833 5835 5837 5840 5843 5845 5847 5848 5850 5851 5852 5854 5855 5857 5859 5862 5863 5865 5866 5868 5870 5871 5868 5870 5873 5875 5877 5879 5880 5880 5881 5882 5884 5886 5887
5577 5584 5591 5599 5608 5616 5623 5628 5637 5646 5652 5657 5662 5669 5677 5684 5692 5701 5711 5715 5715 5719 5724 5729 5733 5737 5742 5744 5751 5763 5765 5763 5766 5772 5777 5782 5786 5789 5793 5795 5798 5802 5804 5807 5810 5813 5815 5818 5821 5823 5824 5827 5829 5831 5832 5834 5837 5839 5841 5843 5845 5847 5850 5851 5852 5853 5855 5857 5859 5860 5862 5864 5867 5869 5868 5866 5868 5871 5872 5874 5876 5877 5877 5878 5880 5881 5883 5885
5572 5578 5584 5591 5601 5609 5617 5624 5631 5639 5647 5653 5656 5663 5671 5679 5687 5696 5706 5710 5710 5713 5719 5723 5727 5731 5733 5739 5750 5755 5753 5754 5759 5766 5772 5777 5781 5783 5787 5789 5792 5796 5799 5803 5806 5808 5810 5814 5817 5819 5821 5824 5826 5827 5829 5832 5834 5836 5838 5840 5842 5844 5847 5849 5849 5851 5853 5855 5857 5857 5859 5862 5865 5867 5866 5864 5866 5868 5870 5872 5873 5874 5875 5876 5877 5878 5880 5882
5567 5573 5578 5585 5593 5602 5610 5619 5625 5632 5641 5647 5649 5657 5665 5672 5681 5689 5700 5704 5705 5709 5714 5717 5720 5723 5727 5736 5745 5745 5745 5747 5752 5760 5767 5772 5776 5778 5782 5785 5787 5790 5794 5797 5800 5803 5806 5810 5813 5815 5818 5820 5822 5824 5826 5828 5830 5833 5835 5836 5838 5841 5845 5846 5847 5849 5851 5853 5854 5855 5857 5860 5863 5863 5863 5863 5864 5866 5868 5869 5870 5872 5873 5874 5874 5875 5877 5879
5561 5567 5573 5578 5586 5594 5603 5612 5619 5625 5634 5639 5643 5652 5658 5665 5673 5682 5693 5698 5702 5707 5711 5711 5712 5715 5722 5730 5736 5738 5738 5740 5748 5758 5762 5767 5771 5775 5778 5781 5784 5787 5790 5793 5797 5801 5803 5805 5808 5811 5814 5816 5819 5821 5823 5825 5827 5829 5831 5833 5835 5839 5842 5843 5844 5847 5849 5850 5852 5852 5855 5859 5860 5860 5860 5861 5861 5863 5865 5867 5868 5869 5871 5872 5872 5873 5874 5875
5556 5561 5566 5572 5579 5587 5595 5604 5612 5619 5626 5631 5637 5645 5651 5658 5666 5675 5684 5692 5698 5703 5704 5703 5705 5712 5717 5723 5731 5732 5732 5738 5747 5753 5756 5762 5766 5770 5774 5776 5780 5783 5785 5789 5793 5796 5799 5801 5803 5805 5808 5811 5814 5817 5819 5821 5822 5825 5828 5830 5833 5836 5839 5840 5841 5844 5846 5847 5849 5850 5852 5856 5857 5857 5858 5859 5859 5859 5862 5864 5865 5866 5867 5868 5869 5870 5871 5872
5553 5556 5561 5566 5573 5580 5587 5595 5604 5612 5618 5622 5630 5639 5645 5651 5659 5668 5676 5684 5690 5694 5696 5697 5703 5712 5710 5713 5722 5724 5729 5738 5742 5746 5751 5756 5760 5763 5767 5771 5774 5777 5780 5783 5787 5790 5793 5796 5798 5800 5803 5807 5810 5813 5814 5816 5818 5822 5825 5828 5832 5834 5837 5838 5839 5841 5842 5843 5845 5847 5849 5852 5855 5854 5855 5856 5857 5857 5859 5861 5861 5862 5863 5865 5866 5867 5868 5869
5548 5552 5556 5561 5566 5573 5579 5586 5595 5604 5610 5615 5624 5633 5638 5644 5652 5661 5668 5676 5683 5686 5690 5691 5696 5701 5698 5703 5716 5724 5731 5735 5738 5742 5744 5748 5753 5757 5761 5765 5769 5772 5774 5778 5781 5785 5788 5791 5794 5796 5799 5803 5806 5808 5810 5813 5817 5821 5824 5826 5830 5833 5834 5835 5836 5837 5838 5839 5841 5843 5846 5850 5852 5852 5852 5853 5854 5855 5856 5858 5858 5859 5860 5861 5862 5864 5865 5867
5543 5547 5551 5556 5561 5566 5572 5578 5585 5593 5602 5610 5618 5626 5633 5638 5646 5655 5660 5667 5673 5676 5681 5685 5685 5687 5691 5703 5715 5723 5727 5729 5731 5735 5736 5741 5747 5749 5753 5758 5762 5765 5768 5772 5776 5780 5783 5786 5788 5791 5796 5800 5804 5807 5809 5812 5816 5819 5821 5823 5826 5829 5830 5832 5833 5833 5835 5836 5838 5841 5844 5847 5849 5849 5850 5850 5851 5852 5852 5854 5855 5856 5857 5858 5859 5860 5862 5863
5538 5542 5546 5550 5555 5560 5565 5570 5577 5584 5593 5604 5613 5620 5626 5631 5637 5644 5650 5657 5665 5671 5676 5680 5681 5684 5693 5701 5705 5712 5718 5720 5722 5726 5730 5735 5739 5742 5745 5750 5754 5758 5762 5767 5772 5775 5778 5781 5784 5790 5795 5798 5803 5806 5808 5810 5812 5815 5817 5820 5823 5825 5828 5830 5830 5831 5832 5833 5835 5838 5839 5842 5845 5846 5847 5847 5848 5849 5850 5851 5852 5853 5854 5854 5856 5857 5858 5860
5533 5537 5541 5545 5549 5554 5558 5564 5570 5576 5585 5596 5607 5614 5619 5625 5630 5636 5646 5654 5664 5670 5670 5673 5677 5681 5687 5692 5697 5705 5711 5710 5712 5717 5722 5725 5729 5733 5736 5742 5748 5753 5758 5762 5765 5769 5772 5776 5783 5788 5791 5794 5798 5801 5803 5805 5808 5810 5812 5816 5819 5822 5825 5827 5827 5828 5829 5829 5831 5834 5834 5838 5842 5843 5844 5844 5844 5847 5848 5849 5849 5850 5850 5851 5852 5853 5855 5856
5528 5532 5536 5540 5544 5548 5553 5559 5564 5571 5580 5589 5601 5610 5616 5623 5627 5635 5644 5649 5657 5661 5661 5666 5671 5675 5680 5685 5691 5697 5701 5703 5706 5709 5712 5715 5719 5724 5731 5737 5743 5749 5753 5755 5758 5762 5766 5772 5779 5782 5785 5789 5792 5795 5798 5800 5803 5805 5807 5811 5815 5819 5822 5824 5824 5824 5825 5825 5827 5829 5829 5833 5838 5839 5841 5841 5842 5845 5846 5846 5846 5846 5847 5848 5849 5850 5851 5852
5522 5526 5531 5535 5539 5543 5548 5554 5560 5568 5575 5584 5595 5605 5614 5620 5625 5631 5634 5638 5645 5648 5652 5660 5664 5669 5675 5680 5684 5686 5691 5696 5699 5703 5707 5711 5716 5721 5727 5731 5736 5742 5745 5749 5755 5758 5762 5770 5776 5779 5782 5785 5789 5792 5795 5797 5799 5801 5804 5808 5812 5817 5820 5821 5821 5821 5822 5822 5823 5825 5826 5829 5834 5835 5837 5840 5841 5842 5842 5842 5843 5843 5844 5845 5845 5846 5847 5848
5517 5522 5526 5530 5535 5539 5544 5550 5557 5565 5570 5578 5588 5598 5608 5614 5619 5625 5625 5629 5635 5637 5646 5653 5656 5663 5670 5676 5679 5678 5683 5689 5693 5698 5702 5705 5712 5717 5721 5726 5731 5736 5741 5749 5754 5755 5760 5767 5773 5777 5779 5782 5785 5788 5791 5793 5795 5797 5800 5805 5809 5814 5816 5817 5818 5818 5818 5819 5820 5822 5822 5824 5829 5831 5834 5837 5837 5837 5838 5838 5839 5840 5841 5842 5842 5843 5844 5845
5513 5517 5521 5526 5531 5535 5541 5547 5553 5559 5564 5573 5582 5590 5601 5607 5611 5616 5617 5619 5622 5630 5641 5644 5649 5659 5666 5671 5672 5671 5677 5682 5686 5694 5698 5701 5707 5712 5717 5722 5725 5730 5740 5748 5751 5753 5758 5763 5768 5772 5774 5776 5779 5783 5786 5789 5792 5794 5797 5801 5805 5809 5812 5813 5814 5814 5814 5815 5817 5819 5818 5818 5825 5828 5829 5833 5832 5832 5835 5835 5835 5837 5838 5840 5840 5841 5842 5843
5509 5513 5517 5522 5526 5532 5538 5543 5548 5552 5560 5570 5576 5583 5593 5599 5602 5605 5609 5610 5611 5622 5632 5635 5642 5652 5659 5662 5664 5668 5671 5673 5681 5690 5694 5698 5704 5708 5711 5714 5718 5727 5736 5740 5741 5745 5751 5758 5763 5766 5769 5772 5774 5778 5783 5785 5787 5790 5795 5799 5800 5804 5807 5808 5810 5810 5810 5811 5813 5815 5814 5813 5819 5824 5825 5827 5829 5830 5831 5832 5833 5836 5837 5838 5839 5839 5839 5840
5505 5508 5513 5517 5523 5529 5534 5538 5543 5550 5559 5565 5569 5575 5582 5591 5595 5595 5600 5599 5599 5613 5622 5626 5635 5645 5653 5657 5660 5663 5663 5668 5679 5684 5687 5693 5698 5702 5703 5706 5714 5722 5727 5728 5730 5738 5747 5753 5756 5760 5763 5765 5768 5774 5779 5782 5783 5788 5793 5795 5796 5799 5802 5804 5806 5806 5806 5806 5808 5811 5811 5809 5812 5820 5824 5824 5825 5827 5828 5830 5833 5834 5834 5835 5835 5835 5836 5836
5500 5504 5508 5514 5519 5525 5529 5534 5541 5548 5553 5557 5563 5568 5573 5584 5588 5585 5585 5582 5589 5609 5614 5617 5631 5640 5645 5649 5652 5655 5658 5669 5677 5677 5685 5690 5692 5695 5697 5701 5710 5716 5720 5721 5726 5736 5743 5746 5750 5755 5757 5760 5767 5773 5776 5778 5781 5786 5790 5791 5792 5794 5796 5798 5800 5801 5802 5802 5803 5807 5809 5807 5806 5814 5821 5822 5821 5824 5826 5829 5830 5830 5829 5830 5831 5832 5832 5833
5495 5499 5504 5509 5516 5521 5526 5533 5538 5541 5545 5551 5557 5560 5565 5575 5578 5574 5570 5568 5586 5608 5609 5614 5627 5629 5630 5636 5644 5650 5656 5666 5671 5673 5681 5684 5685 5690 5692 5697 5705 5709 5712 5716 5722 5730 5735 5741 5747 5749 5752 5760 5768 5770 5772 5774 5777 5781 5784 5785 5787 5788 5790 5792 5793 5796 5797 5796 5799 5804 5806 5804 5802 5807 5816 5819 5820 5822 5825 5825 5825 5825 5825 5826 5827 5828 5829 5829
5490 5494 5499 5506 5513 5519 5525 5530 5533 5536 5542 5548 5551 5555 5561 5565 5566 5562 5553 5559 5586 5602 5602 5612 5619 5618 5622 5630 5639 5646 5652 5660 5665 5670 5673 5675 5681 5685 5688 5696 5700 5701 5706 5710 5714 5720 5727 5735 5737 5739 5747 5757 5761 5762 5765 5768 5770 5774 5777 5780 5781 5782 5784 5785 5787 5790 5789 5790 5795 5799 5801 5802 5799 5801 5809 5816 5820 5821 5821 5820 5820 5821 5821 5822 5823 5824 5825 5825
5485 5490 5496 5503 5510 5516 5522 5525 5529 5534 5538 5542 5546 5550 5553 5554 5554 5548 5541 5560 5590 5595 5594 5604 5608 5613 5623 5629 5636 5644 5650 5655 5659 5663 5665 5667 5673 5677 5681 5686 5689 5694 5700 5703 5708 5715 5723 5725 5727 5734 5744 5749 5752 5754 5758 5761 5763 5767 5771 5773 5775 5776 5778 5779 5781 5781 5781 5785 5789 5792 5797 5798 5797 5799 5803 5811 5818 5819 5817 5816 5816 5816 5817 5817 5818 5819 5820 5821
5480 5485 5492 5499 5506 5512 5516 5520 5525 5530 5531 5535 5539 5540 5542 5541 5538 5534 5540 5566 5586 5583 5586 5597 5601 5611 5621 5626 5635 5643 5648 5651 5652 5657 5660 5661 5664 5668 5672 5676 5680 5685 5689 5694 5704 5713 5717 5718 5723 5731 5737 5741 5745 5748 5751 5754 5757 5761 5763 5766 5767 5768 5769 5770 5772 5773 5776 5782 5785 5787 5791 5793 5796 5798 5798 5803 5811 5813 5813 5813 5812 5812 5813 5813 5813 5815 5816 5817
5475 5481 5489 5496 5503 5507 5510 5515 5521 5522 5524 5528 5530 5530 5533 5531 5525 5530 5544 5561 5570 5571 5581 5592 5600 5610 5617 5620 5629 5637 5643 5647 5648 5652 5656 5657 5660 5665 5671 5674 5677 5681 5686 5695 5702 5704 5706 5708 5714 5723 5729 5735 5739 5741 5745 5749 5752 5754 5755 5757 5758 5760 5763 5765 5767 5770 5774 5779 5781 5783 5785 5787 5793 5797 5794 5795 5801 5806 5809 5809 5809 5809 5809 5809 5809 5810 5812 5813
5471 5478 5485 5492 5498 5499 5504 5511 5513 5514 5518 5520 5521 5522 5522 5520 5521 5532 5544 5552 5560 5567 5577 5587 5597 5605 5610 5614 5623 5630 5635 5639 5643 5647 5650 5652 5653 5658 5664 5667 5670 5678 5687 5694 5696 5699 5702 5704 5711 5721 5726 5731 5734 5737 5742 5746 5748 5749 5751 5754 5756 5759 5763 5765 5766 5769 5772 5775 5777 5778 5779 5783 5789 5792 5791 5790 5794 5799 5803 5804 5805 5805 5805 5805 5806 5807 5808 5808
5467 5475 5480 5487 5492 5494 5500 5506 5506 5508 5512 5512 5512 5512 5510 5513 5522 5530 5538 5546 5555 5565 5575 5585 5594 5599 5603 5609 5617 5623 5627 5632 5638 5641 5642 5644 5646 5651 5658 5660 5666 5676 5682 5685 5689 5697 5702 5706 5716 5724 5726 5729 5733 5735 5738 5740 5740 5743 5747 5748 5751 5756 5759 5759 5761 5765 5768 5769 5770 5771 5774 5780 5784 5786 5787 5787 5788 5793 5796 5798 5800 5801 5801 5802 5802 5802 5803 5803
5464 5470 5476 5484 5487 5490 5496 5499 5500 5503 5504 5504 5504 5502 5504 5514 5523 5528 5535 5544 5550 5561 5572 5580 5587 5592 5596 5602 5608 5613 5617 5625 5633 5634 5636 5640 5642 5648 5655 5659 5667 5673 5675 5679 5686 5694 5698 5702 5711 5717 5719 5724 5728 5730 5733 5734 5735 5739 5740 5741 5747 5752 5753 5755 5758 5761 5762 5762 5763 5767 5771 5776 5779 5780 5783 5784 5784 5787 5790 5792 5794 5794 5796 5797 5797 5797 5798 5799
5460 5466 5473 5480 5482 5485 5490 5492 5493 5495 5497 5496 5495 5495 5502 5512 5520 5525 5534 5542 5547 5556 5567 5572 5578 5584 5588 5594 5599 5605 5611 5619 5626 5628 5631 5636 5638 5643 5650 5657 5665 5670 5674 5682 5687 5691 5695 5698 5704 5710 5713 5717 5719 5722 5725 5725 5728 5731 5734 5740 5747 5746 5747 5752 5754 5755 5756 5756 5758 5764 5768 5772 5774 5776 5780 5781 5781 5782 5784 5786 5787 5788 5790 5791 5793 5793 5794 5795
5456 5460 5469 5476 5477 5480 5485 5485 5486 5488 5489 5487 5487 5493 5501 5508 5516 5522 5531 5539 5544 5551 5557 5561 5570 5578 5583 5588 5593 5601 5608 5614 5620 5622 5625 5630 5632 5638 5645 5653 5662 5668 5675 5683 5685 5687 5692 5694 5699 5704 5706 5710 5713 5715 5715 5716 5721 5725 5731 5738 5740 5737 5742 5748 5747 5748 5751 5751 5754 5760 5763 5766 5770 5774 5777 5777 5777 5778 5779 5780 5781 5782 5784 5785 5787 5788 5789 5790
5449 5454 5465 5474 5474 5475 5479 5479 5480 5481 5479 5478 5482 5491 5498 5505 5514 5520 5527 5535 5540 5544 5546 5552 5565 5572 5576 5583 5591 5599 5604 5609 5616 5619 5621 5625 5629 5636 5643 5651 5659 5665 5671 5677 5678 5681 5686 5687 5690 5696 5700 5703 5704 5704 5706 5710 5716 5721 5725 5729 5730 5731 5737 5739 5739 5743 5746 5746 5750 5754 5755 5759 5766 5771 5772 5771 5772 5773 5774 5775 5775 5777 5778 5779 5781 5783 5784 5785
5442 5450 5462 5469 5467 5469 5472 5472 5471 5471 5470 5473 5480 5488 5496 5505 5512 5519 5526 5531 5535 5538 5541 5548 5560 5566 5572 5581 5588 5594 5599 5605 5612 5615 5617 5622 5627 5634 5640 5646 5655 5662 5667 5669 5670 5673 5677 5679 5684 5689 5691 5692 5694 5697 5703 5708 5711 5714 5717 5721 5723 5726 5729 5731 5733 5738 5741 5742 5745 5747 5748 5755 5763 5767 5767 5767 5768 5769 5769 5769 5769 5770 5771 5772 5775 5778 5779 5780
5436 5445 5457 5462 5460 5461 5463 5462 5461 5463 5466 5471 5477 5485 5494 5502 5509 5515 5521 5527 5531 5535 5539 5546 5553 5561 5569 5576 5582 5589 5594 5597 5603 5608 5612 5618 5623 5629 5636 5643 5651 5656 5658 5658 5660 5665 5670 5674 5678 5681 5682 5686 5691 5696 5700 5702 5705 5709 5712 5716 5721 5723 5725 5727 5729 5734 5738 5737 5739 5741 5742 5751 5760 5762 5761 5762 5763 5764 5764 5764 5765 5765 5766 5767 5770 5771 5773 5775
5430 5442 5453 5455 5453 5453 5454 5454 5457 5460 5462 5468 5476 5485 5493 5500 5506 5511 5516 5522 5526 5530 5534 5538 5545 5554 5561 5568 5576 5584 5588 5591 5594 5600 5608 5615 5621 5629 5638 5644 5648 5650 5652 5655 5659 5662 5665 5668 5671 5673 5677 5682 5685 5688 5690 5694 5700 5702 5702 5708 5714 5715 5718 5722 5723 5728 5730 5729 5732 5736 5736 5745 5755 5755 5754 5756 5757 5759 5759 5760 5761 5760 5761 5762 5763 5765 5766 5767
5427 5440 5447 5447 5446 5448 5448 5448 5452 5454 5458 5467 5476 5483 5489 5494 5501 5507 5511 5515 5519 5524 5528 5531 5536 5544 5551 5560 5568 5575 5581 5585 5588 5596 5607 5615 5620 5628 5634 5638 5642 5644 5647 5650 5651 5653 5657 5660 5663 5667 5672 5676 5678 5682 5686 5690 5692 5693 5696 5702 5705 5707 5712 5713 5714 5720 5721 5721 5728 5730 5729 5740 5751 5750 5749 5751 5752 5754 5755 5756 5757 5756 5756 5756 5757 5759 5760 5761
5426 5436 5439 5439 5439 5440 5440 5441 5446 5450 5456 5465 5471 5475 5481 5486 5492 5499 5504 5508 5513 5519 5523 5526 5531 5537 5545 5553 5561 5567 5574 5579 5582 5591 5603 5610 5615 5621 5626 5631 5635 5636 5639 5643 5644 5648 5653 5653 5656 5662 5665 5667 5670 5673 5676 5678 5681 5686 5691 5695 5698 5701 5703 5702 5706 5712 5712 5716 5723 5721 5723 5737 5746 5745 5745 5747 5748 5750 5750 5751 5751 5750 5750 5751 5752 5754 5755 5756
5420 5425 5427 5428 5427 5427 5431 5437 5443 5448 5454 5460 5464 5469 5475 5480 5486 5493 5498 5503 5510 5515 5518 5523 5528 5536 5542 5548 5555 5561 5567 5573 5579 5587 5596 5603 5609 5615 5619 5625 5629 5631 5636 5641 5643 5647 5647 5645 5651 5655 5653 5655 5660 5662 5666 5671 5675 5679 5683 5686 5690 5692 5692 5695 5701 5703 5705 5713 5717 5715 5722 5736 5741 5740 5741 5744 5745 5745 5745 5745 5745 5744 5745 5746 5747 5748 5749 5750
5409 5412 5415 5418 5418 5419 5425 5434 5439 5442 5448 5454 5458 5464 5470 5474 5481 5490 5494 5497 5503 5509 5514 5519 5525 5531 5535 5539 5545 5552 5558 5567 5573 5579 5588 5596 5602 5609 5615 5620 5625 5629 5633 5634 5636 5640 5639 5640 5647 5649 5649 5656 5662 5665 5670 5673 5673 5676 5681 5685 5688 5687 5689 5694 5695 5696 5705 5711 5710 5713 5725 5733 5735 5735 5736 5738 5740 5740 5740 5740 5739 5738 5738 5739 5740 5742 5743 5744
5399 5403 5408 5412 5414 5415 5421 5429 5433 5437 5445 5450 5454 5460 5465 5469 5477 5484 5487 5490 5498 5505 5509 5513 5517 5520 5524 5530 5536 5544 5553 5561 5566 5572 5581 5589 5598 5606 5611 5617 5621 5623 5626 5627 5630 5632 5631 5634 5642 5647 5650 5657 5661 5663 5668 5669 5671 5676 5681 5682 5683 5684 5686 5687 5687 5695 5705 5702 5701 5714 5724 5726 5728 5730 5729 5732 5735 5736 5735 5733 5732 5733 5732 5732 5734 5735 5737 5738
5393 5399 5405 5408 5410 5411 5417 5426 5432 5438 5445 5449 5451 5456 5461 5464 5469 5474 5479 5487 5494 5498 5500 5503 5508 5512 5518 5525 5530 5538 5547 5553 5558 5567 5575 5581 5590 5597 5603 5610 5613 5614 5617 5620 5622 5625 5625 5631 5641 5645 5648 5652 5653 5656 5661 5663 5667 5673 5674 5676 5679 5680 5680 5682 5687 5695 5697 5692 5699 5715 5718 5716 5720 5723 5723 5726 5728 5728 5728 5725 5725 5727 5726 5725 5727 5729 5730 5732
5389 5395 5399 5401 5403 5409 5417 5427 5433 5436 5441 5445 5446 5449 5453 5456 5461 5468 5477 5483 5485 5487 5491 5495 5501 5509 5516 5521 5525 5530 5537 5543 5550 5560 5568 5576 5584 5590 5597 5603 5605 5608 5611 5612 5616 5619 5622 5630 5638 5640 5642 5645 5647 5650 5655 5657 5661 5664 5667 5670 5673 5674 5676 5679 5684 5690 5690 5688 5697 5708 5707 5704 5710 5715 5717 5718 5719 5719 5719 5719 5720 5721 5720 5719 5720 5722 5724 5724
5384 5388 5393 5395 5398 5407 5416 5422 5425 5427 5432 5437 5436 5439 5446 5450 5454 5463 5470 5472 5474 5480 5485 5489 5498 5508 5512 5516 5519 5522 5530 5540 5550 5560 5568 5575 5580 5586 5592 5598 5603 5606 5606 5608 5612 5615 5620 5628 5633 5635 5636 5636 5640 5646 5649 5650 5654 5657 5660 5663 5665 5667 5670 5673 5677 5682 5682 5681 5689 5696 5694 5694 5703 5710 5710 5710 5710 5711 5712 5713 5714 5715 5714 5713 5714 5716 5717 5717
5378 5382 5387 5388 5392 5402 5408 5412 5417 5419 5422 5425 5426 5432 5439 5440 5447 5457 5461 5463 5469 5475 5480 5487 5497 5504 5507 5510 5513 5519 5529 5540 5550 5562 5571 5577 5584 5591 5596 5600 5604 5604 5603 5606 5610 5612 5617 5623 5626 5627 5626 5628 5637 5642 5640 5643 5647 5647 5650 5655 5658 5661 5664 5667 5672 5676 5675 5676 5683 5686 5685 5692 5703 5705 5703 5703 5704 5704 5706 5708 5708 5708 5708 5708 5709 5711 5712 5711
5371 5376 5381 5382 5386 5394 5399 5404 5409 5409 5411 5417 5422 5427 5432 5435 5442 5449 5451 5454 5461 5469 5478 5489 5496 5499 5499 5500 5505 5517 5531 5541 5551 5563 5571 5577 5586 5592 5594 5597 5599 5599 5601 5605 5607 5609 5613 5617 5619 5620 5621 5627 5633 5634 5635 5638 5634 5631 5640 5652 5655 5657 5661 5663 5666 5670 5671 5673 5677 5679 5683 5693 5699 5697 5696 5697 5697 5698 5701 5702 5702 5703 5703 5702 5702 5704 5704 5703